星链-31792 (STARLINK-31792 )

导读 | 星芒AI

STARLINK-31792 是 SpaceX 星链计划中的一颗低轨通信卫星,属于星链第三代(v1.5)卫星系列。该卫星于2023年发射,旨在为全球用户提供高速互联网服务。它运行在约550公里高的近地轨道,配备先进激光通信系统和多频段通信设备,支持更广覆盖与更低延迟。星链项目通过部署大量此类卫星,构建全球宽带网络,尤其服务于偏远地区。STARLINK-31792 的加入进一步增强了星链星座的稳定性和服务能力。

基本信息
目录编号:
60132
目录名称:
STARLINK-31792
国际标识:
2024-118V
轨道中心:
EARTH
卫星名称:
星链-31792
卫星全名:
星链-31792 (STARLINK-31792 )
卫星状态:
在轨 (已飞行544 天)
发射日期:
2024-06-24 UTC
国别 :
美国 (US)
星等 :
--
轨道信息
数据来源 国际轨道数据
星历时间: 2025-12-19T18:42:23+0800
17小时前
查看轨道信息
半长轴: 6853.358km
偏心率: 0.0001272
轨道倾角: 53.161°
近地点辐角 91.516°
升交点赤经 37.062°
平近点角 268.599°
近地点: 474.349km
远地点: 476.093km
周期: 94.105分钟
每日圈数: 15.301982
详细信息
固有亮度:
5
最大亮度:
1.5
卫星平台:
Starlink v2.0 mini
覆盖范围:
全球
运营商:
SpaceX
制造商(研发单位):
太空探索技术公司
制造商所在国:
美国
使用方式:
暂无
卫星简介
星链(Starlink)计划是由太空探索技术公司(SpaceX)提出的一个巨型低轨卫星互联网星座项目,计划在2019年至2024年间在太空搭建由约1.2万颗卫星组成的“星链”网络,其中1584颗将部署在地球上空550千米处的近地轨道,并从2020年开始工作。该卫星仍在工作。
2D轨道图
3D轨道图
轨道高度分析图
轨道倾角分析图
轨道综合分析图
查看轨道综合分析图